When you browse on this site, cookies collect data to enhance your experience and personalize the content and advertising you see.
Visit our Privacy Policy to learn more. By continuing to use the site, you agree to this use of cookies and data.
  • In Hungary
  • List of Countries
  • For 7 days
  • Water Temperature
  • Satellite Maps
  • Weather Map
  • News
  • Weather Widgets
  • user-avatar
    Login

    Hourly Weather Zaluzhnyy

    Today, 16 November, Friday

    Time Temperature Precipitation Wind Pressure Humidity
    00:00 -2°C° 0.4 mm 8 mps 764 mmHg 85%
    01:00 -4°C° 0.3 mm 8 mps 764 mmHg 85%
    02:00 -4°C° 0.3 mm 8 mps 764 mmHg 85%
    03:00 -4°C° 0 mm 7 mps 764 mmHg 83%
    04:00 -6°C° 0.3 mm 7 mps 764 mmHg 82%
    05:00 -6°C° 0.3 mm 7 mps 764 mmHg 82%
    06:00 -6°C° 0.3 mm 8 mps 765 mmHg 81%
    07:00 -5°C° 0.1 mm 8 mps 765 mmHg 82%
    08:00 -5°C° 0.1 mm 8 mps 765 mmHg 82%
    09:00 -5°C° 0 mm 8 mps 765 mmHg 81%
    10:00 -5°C° 0.1 mm 8 mps 765 mmHg 83%
    11:00 -5°C° 0.1 mm 8 mps 766 mmHg 85%
    12:00 -4°C° 0.1 mm 8 mps 766 mmHg 87%
    13:00 -4°C° 0.2 mm 8 mps 766 mmHg 88%
    14:00 -4°C° 0.2 mm 8 mps 766 mmHg 89%
    15:00 -4°C° 0.2 mm 8 mps 766 mmHg 90%
    16:00 -4°C° 0.3 mm 8 mps 766 mmHg 90%
    17:00 -4°C° 0.3 mm 8 mps 766 mmHg 91%
    18:00 -4°C° 0.3 mm 8 mps 767 mmHg 91%
    19:00 -4°C° 0.2 mm 8 mps 766 mmHg 90%
    20:00 -3°C° 0.2 mm 7 mps 766 mmHg 89%
    21:00 -3°C° 0.2 mm 7 mps 766 mmHg 88%
    22:00 -3°C° 0.1 mm 7 mps 766 mmHg 86%
    23:00 -3°C° 0.1 mm 7 mps 766 mmHg 85%

    Tomorrow, 17 November, Saturday

    Time Temperature Precipitation Wind Pressure Humidity
    00:00 -3°C° 0.1 mm 7 mps 766 mmHg 83%
    01:00 -3°C° 0.1 mm 6 mps 766 mmHg 83%
    02:00 -3°C° 0.1 mm 6 mps 766 mmHg 82%
    03:00 -4°C° 0.1 mm 6 mps 767 mmHg 82%
    04:00 -4°C° 0 mm 6 mps 766 mmHg 81%
    05:00 -4°C° 0 mm 6 mps 766 mmHg 80%
    06:00 -4°C° 0 mm 6 mps 766 mmHg 79%
    07:00 -4°C° 0 mm 6 mps 767 mmHg 80%
    08:00 -4°C° 0 mm 6 mps 767 mmHg 81%
    09:00 -4°C° 0 mm 6 mps 767 mmHg 82%
    10:00 -4°C° 0.1 mm 5 mps 767 mmHg 83%
    11:00 -2°C° 0.1 mm 5 mps 767 mmHg 85%
    12:00 -2°C° 0.1 mm 5 mps 767 mmHg 86%
    13:00 -2°C° 0 mm 5 mps 766 mmHg 86%
    14:00 -2°C° 0 mm 5 mps 766 mmHg 87%
    15:00 -2°C° 0 mm 4 mps 766 mmHg 87%
    16:00 -2°C° 0 mm 4 mps 766 mmHg 86%
    17:00 -2°C° 0 mm 3 mps 766 mmHg 85%
    18:00 -2°C° 0 mm 3 mps 765 mmHg 84%
    19:00 -2°C° 0 mm 3 mps 765 mmHg 83%
    20:00 -2°C° 0 mm 3 mps 765 mmHg 82%
    21:00 -3°C° 0 mm 2 mps 765 mmHg 81%
    22:00 -3°C° 0 mm 2 mps 764 mmHg 80%
    23:00 -3°C° 0 mm 2 mps 764 mmHg 79%

    Day after tomorrow, 18 November, Sunday

    Time Temperature Precipitation Wind Pressure Humidity
    00:00 -3°C° 0 mm 2 mps 764 mmHg 78%
    01:00 -4°C° 0 mm 2 mps 763 mmHg 78%
    02:00 -4°C° 0 mm 2 mps 763 mmHg 78%
    03:00 -4°C° 0 mm 2 mps 763 mmHg 78%
    04:00 -4°C° 0 mm 2 mps 762 mmHg 78%
    05:00 -2°C° 0 mm 1 mps 762 mmHg 78%
    06:00 -2°C° 0 mm 1 mps 761 mmHg 78%
    07:00 -2°C° 0 mm 1 mps 761 mmHg 78%
    08:00 -1°C° 0 mm 1 mps 761 mmHg 77%
    09:00 -1°C° 0 mm 1 mps 761 mmHg 77%
    10:00 -1°C° 0 mm 0 mps 761 mmHg 77%
    11:00 0°C° 0 mm 0 mps 760 mmHg 77%
    12:00 0°C° 0 mm 0 mps 760 mmHg 77%
    13:00 0°C° 0 mm 0 mps 760 mmHg 79%
    14:00 0°C° 0 mm 0 mps 760 mmHg 81%
    15:00 +1°C° 0 mm 0 mps 759 mmHg 84%
    16:00 0°C° 0 mm 0 mps 759 mmHg 84%
    17:00 -1°C° 0 mm 0 mps 759 mmHg 84%
    18:00 -2°C° 0 mm 0 mps 759 mmHg 84%
    19:00 -2°C° 0 mm 0 mps 759 mmHg 84%
    20:00 -1°C° 0 mm 1 mps 759 mmHg 85%
    21:00 -1°C° 0 mm 1 mps 759 mmHg 86%
    22:00 -1°C° 0 mm 1 mps 759 mmHg 87%
    23:00 -1°C° 0 mm 1 mps 759 mmHg 88%

    19 November, Monday

    Time Temperature Precipitation Wind Pressure Humidity
    00:00 -1°C° 0 mm 1 mps 759 mmHg 89%
    01:00 -1°C° 0 mm 1 mps 759 mmHg 90%
    02:00 -1°C° 0 mm 1 mps 759 mmHg 91%
    03:00 -1°C° 0 mm 1 mps 759 mmHg 92%
    04:00 -1°C° 0 mm 1 mps 759 mmHg 93%
    05:00 -1°C° 0 mm 1 mps 759 mmHg 93%
    06:00 -2°C° 0 mm 2 mps 759 mmHg 94%
    07:00 -2°C° 0 mm 2 mps 760 mmHg 95%
    08:00 -2°C° 0 mm 2 mps 760 mmHg 96%
    09:00 -1°C° 0 mm 2 mps 760 mmHg 96%
    10:00 -1°C° 0 mm 3 mps 760 mmHg 97%
    11:00 0°C° 0 mm 3 mps 760 mmHg 97%
    12:00 0°C° 0 mm 3 mps 760 mmHg 97%
    13:00 0°C° 0 mm 3 mps 760 mmHg 97%
    14:00 0°C° 0 mm 3 mps 760 mmHg 96%
    15:00 -1°C° 0 mm 4 mps 760 mmHg 96%
    16:00 -1°C° 0 mm 4 mps 760 mmHg 94%
    17:00 -2°C° 0 mm 4 mps 760 mmHg 92%
    18:00 -2°C° 0 mm 4 mps 760 mmHg 91%
    19:00 -2°C° 0 mm 4 mps 761 mmHg 87%
    20:00 -2°C° 0 mm 4 mps 761 mmHg 84%
    21:00 -2°C° 0 mm 4 mps 761 mmHg 80%
    22:00 -2°C° 0 mm 5 mps 761 mmHg 80%
    23:00 -2°C° 0 mm 5 mps 761 mmHg 79%

    20 November, Tuesday

    Time Temperature Precipitation Wind Pressure Humidity
    00:00 -2°C° 0 mm 5 mps 761 mmHg 79%
    01:00 -2°C° 0 mm 5 mps 761 mmHg 82%
    02:00 -1°C° 0 mm 5 mps 761 mmHg 85%
    03:00 -1°C° 0 mm 5 mps 761 mmHg 87%
    04:00 -1°C° 0 mm 5 mps 761 mmHg 88%
    05:00 -2°C° 0 mm 6 mps 761 mmHg 89%
    06:00 -2°C° 0 mm 7 mps 761 mmHg 89%
    07:00 -2°C° 0 mm 7 mps 761 mmHg 89%
    08:00 -1°C° 0 mm 7 mps 761 mmHg 88%
    09:00 -1°C° 0 mm 7 mps 761 mmHg 87%
    10:00 -1°C° 0 mm 7 mps 761 mmHg 87%
    11:00 -1°C° 0 mm 7 mps 761 mmHg 87%
    12:00 0°C° 0 mm 7 mps 760 mmHg 86%
    13:00 0°C° 0.2 mm 7 mps 760 mmHg 87%
    14:00 0°C° 0.2 mm 7 mps 760 mmHg 88%
    15:00 +1°C° 0.2 mm 6 mps 760 mmHg 89%
    16:00 +1°C° 1.2 mm 6 mps 760 mmHg 91%
    17:00 +1°C° 1.2 mm 6 mps 759 mmHg 92%
    18:00 +1°C° 1.2 mm 6 mps 759 mmHg 93%
    19:00 +1°C° 0.4 mm 5 mps 759 mmHg 94%
    20:00 +1°C° 0.4 mm 5 mps 759 mmHg 95%
    21:00 +3°C° 0.4 mm 4 mps 759 mmHg 96%
    22:00 +3°C° 0.1 mm 4 mps 759 mmHg 96%
    23:00 +3°C° 0.1 mm 4 mps 759 mmHg 96%

    21 November, Wednesday

    Time Temperature Precipitation Wind Pressure Humidity
    00:00 +3°C° 0.1 mm 3 mps 759 mmHg 97%
    01:00 +3°C° 0 mm 3 mps 759 mmHg 97%
    02:00 +3°C° 0 mm 3 mps 758 mmHg 97%
    03:00 +3°C° 0 mm 3 mps 758 mmHg 97%
    04:00 +3°C° 0 mm 3 mps 758 mmHg 97%
    05:00 +3°C° 0 mm 3 mps 758 mmHg 97%
    06:00 +4°C° 0 mm 2 mps 757 mmHg 97%
    07:00 +5°C° 0 mm 2 mps 757 mmHg 97%
    08:00 +5°C° 0 mm 2 mps 757 mmHg 97%
    09:00 +5°C° 0 mm 2 mps 757 mmHg 97%
    10:00 +5°C° 0 mm 2 mps 757 mmHg 95%
    11:00 +6°C° 0 mm 2 mps 756 mmHg 94%
    12:00 +6°C° 0 mm 2 mps 756 mmHg 92%
    13:00 +7°C° 0 mm 2 mps 755 mmHg 92%
    14:00 +7°C° 0 mm 3 mps 755 mmHg 91%
    15:00 +7°C° 0 mm 3 mps 754 mmHg 91%
    16:00 +7°C° 0.2 mm 3 mps 754 mmHg 93%
    17:00 +7°C° 0.2 mm 3 mps 754 mmHg 94%
    18:00 +5°C° 0.2 mm 3 mps 753 mmHg 96%
    19:00 +5°C° 0.2 mm 3 mps 753 mmHg 96%
    20:00 +7°C° 0.2 mm 3 mps 753 mmHg 96%
    21:00 +7°C° 0.2 mm 3 mps 752 mmHg 96%
    22:00 +7°C° 0.1 mm 3 mps 752 mmHg 96%
    23:00 +7°C° 0.1 mm 3 mps 751 mmHg 96%
    Show more